Time,TemperatureF,DewpointF,PressureIn,WindDirection,WindDirectionDegrees,WindSpeedMPH,WindSpeedGustMPH,Humidity,HourlyPrecipIn,Conditions,Clouds,dailyrainin,SoftwareType,DateUTC
2013-02-19 00:02:00,42.0,28.0,-100.00,South,175,4.0,11.0,55,0.00,,,-99.99,,2013-02-19 05:02:00,
2013-02-19 00:12:00,43.0,28.0,-100.00,SSW,195,4.0,10.0,54,0.00,,,-99.99,,2013-02-19 05:12:00,
2013-02-19 00:22:00,43.0,28.0,-100.00,SSE,155,4.0,10.0,54,0.00,,,-99.99,,2013-02-19 05:22:00,
2013-02-19 00:32:00,44.0,28.0,-100.00,SSW,205,5.0,13.0,53,0.00,,,-99.99,,2013-02-19 05:32:00,
2013-02-19 00:43:00,44.0,27.0,-100.00,South,185,7.0,12.0,52,0.00,,,-99.99,,2013-02-19 05:43:00,
2013-02-19 00:52:00,43.0,28.0,-100.00,SSE,165,4.0,11.0,53,0.00,,,-99.99,,2013-02-19 05:52:00,
2013-02-19 01:03:00,43.0,28.0,-100.00,SSE,165,4.0,11.0,53,0.00,,,-99.99,,2013-02-19 06:03:00,
2013-02-19 01:12:00,44.0,27.0,-100.00,South,170,6.0,14.0,50,0.00,,,-99.99,,2013-02-19 06:12:00,
2013-02-19 01:22:00,44.0,27.0,-100.00,SW,215,6.0,17.0,49,0.00,,,-99.99,,2013-02-19 06:22:00,
2013-02-19 01:32:00,44.0,27.0,-100.00,SSW,200,5.0,20.0,49,0.00,,,-99.99,,2013-02-19 06:32:00,
2013-02-19 01:42:00,45.0,26.0,-100.00,SSW,210,9.0,17.0,48,0.00,,,-99.99,,2013-02-19 06:42:00,
2013-02-19 01:52:00,44.0,26.0,-100.00,South,170,7.0,16.0,48,0.00,,,-99.99,,2013-02-19 06:52:00,
2013-02-19 02:02:00,44.0,27.0,-100.00,South,175,7.0,13.0,50,0.00,,,-99.99,,2013-02-19 07:02:00,
2013-02-19 02:11:00,44.0,27.0,-100.00,SW,215,6.0,15.0,50,0.00,,,-99.99,,2013-02-19 07:11:00,
2013-02-19 02:22:00,44.0,30.0,-100.00,SW,235,7.0,23.0,55,0.55,,,-99.99,,2013-02-19 07:22:00,
2013-02-19 02:32:00,44.0,31.0,-100.00,SW,235,17.0,27.0,57,0.00,,,-99.99,,2013-02-19 07:32:00,
2013-02-19 02:42:00,45.0,29.0,-100.00,SSW,195,9.0,22.0,53,0.00,,,-99.99,,2013-02-19 07:42:00,
2013-02-19 02:52:00,46.0,28.0,-100.00,SSW,195,9.0,17.0,50,0.00,,,-99.99,,2013-02-19 07:52:00,
2013-02-19 03:02:00,44.0,31.0,-100.00,SW,235,22.0,42.0,60,0.55,,,-99.99,,2013-02-19 08:02:00,
2013-02-19 03:11:00,42.0,32.0,-100.00,SW,220,16.0,32.0,68,1.10,,,-99.99,,2013-02-19 08:11:00,
2013-02-19 03:21:00,40.0,33.0,-100.00,SW,215,13.0,26.0,77,3.94,,,-99.99,,2013-02-19 08:21:00,
2013-02-19 03:32:00,40.0,34.0,-100.00,WSW,240,11.0,22.0,80,3.39,,,-99.99,,2013-02-19 08:32:00,
2013-02-19 03:42:00,39.0,34.0,-100.00,SW,220,12.0,24.0,82,4.53,,,-99.99,,2013-02-19 08:42:00,
2013-02-19 03:52:00,39.0,34.0,-100.00,SW,215,9.0,23.0,82,2.83,,,-99.99,,2013-02-19 08:52:00,
2013-02-19 04:02:00,39.0,34.0,-100.00,SSW,195,7.0,19.0,82,0.55,,,-99.99,,2013-02-19 09:02:00,
2013-02-19 04:11:00,39.0,34.0,-100.00,South,185,8.0,17.0,82,0.00,,,-99.99,,2013-02-19 09:11:00,
2013-02-19 04:22:00,39.0,34.0,-100.00,SW,215,7.0,18.0,82,0.00,,,-99.99,,2013-02-19 09:22:00,
2013-02-19 04:32:00,39.0,35.0,-100.00,South,180,6.0,14.0,83,1.10,,,-99.99,,2013-02-19 09:32:00,
2013-02-19 04:42:00,39.0,35.0,-100.00,South,180,7.0,12.0,84,1.10,,,-99.99,,2013-02-19 09:42:00,
2013-02-19 04:52:00,39.0,35.0,-100.00,SSW,195,7.0,16.0,84,0.55,,,-99.99,,2013-02-19 09:52:00,
2013-02-19 05:02:00,38.0,35.0,-100.00,South,180,8.0,16.0,85,1.10,,,-99.99,,2013-02-19 10:02:00,
2013-02-19 05:11:00,38.0,35.0,-100.00,SSW,200,6.0,13.0,86,1.69,,,-99.99,,2013-02-19 10:11:00,
2013-02-19 05:22:00,38.0,35.0,-100.00,SSW,200,9.0,19.0,86,1.10,,,-99.99,,2013-02-19 10:22:00,
2013-02-19 05:32:00,38.0,34.0,-100.00,South,185,6.0,16.0,87,0.55,,,-99.99,,2013-02-19 10:32:00,
2013-02-19 05:42:00,38.0,34.0,-100.00,South,185,6.0,14.0,87,0.00,,,-99.99,,2013-02-19 10:42:00,
2013-02-19 05:51:00,38.0,35.0,-100.00,SSW,195,9.0,17.0,87,1.10,,,-99.99,,2013-02-19 10:51:00,
2013-02-19 06:01:00,38.0,35.0,-100.00,South,175,8.0,15.0,87,0.00,,,-99.99,,2013-02-19 11:01:00,
2013-02-19 06:11:00,38.0,35.0,-100.00,South,170,7.0,16.0,87,0.00,,,-99.99,,2013-02-19 11:11:00,
2013-02-19 06:22:00,38.0,35.0,-100.00,South,190,8.0,16.0,87,1.10,,,-99.99,,2013-02-19 11:22:00,
2013-02-19 06:32:00,38.0,35.0,-100.00,South,190,8.0,16.0,87,0.00,,,-99.99,,2013-02-19 11:32:00,
2013-02-19 06:42:00,38.0,35.0,-100.00,South,190,6.0,14.0,87,0.00,,,-99.99,,2013-02-19 11:42:00,
2013-02-19 06:52:00,39.0,35.0,-100.00,South,185,8.0,16.0,87,0.55,,,-99.99,,2013-02-19 11:52:00,
2013-02-19 07:02:00,39.0,35.0,-100.00,SSW,200,9.0,15.0,87,1.10,,,-99.99,,2013-02-19 12:02:00,
2013-02-19 07:12:00,39.0,36.0,-100.00,SSW,195,7.0,19.0,87,0.00,,,-99.99,,2013-02-19 12:12:00,
2013-02-19 07:22:00,39.0,36.0,-100.00,SSW,210,9.0,18.0,87,0.55,,,-99.99,,2013-02-19 12:22:00,
2013-02-19 07:32:00,39.0,36.0,-100.00,SW,220,7.0,21.0,87,0.00,,,-99.99,,2013-02-19 12:32:00,
2013-02-19 07:42:00,39.0,36.0,-100.00,SW,225,10.0,17.0,87,0.00,,,-99.99,,2013-02-19 12:42:00,
2013-02-19 07:52:00,39.0,36.0,-100.00,SSW,200,9.0,19.0,87,0.00,,,-99.99,,2013-02-19 12:52:00,
2013-02-19 08:02:00,39.0,36.0,-100.00,SSW,200,7.0,19.0,87,0.00,,,-99.99,,2013-02-19 13:02:00,
2013-02-19 08:11:00,40.0,36.0,-100.00,SW,215,12.0,22.0,86,0.00,,,-99.99,,2013-02-19 13:11:00,
2013-02-19 08:22:00,40.0,36.0,-100.00,SSW,195,9.0,19.0,86,0.00,,,-99.99,,2013-02-19 13:22:00,
2013-02-19 08:32:00,40.0,36.0,-100.00,SW,215,9.0,18.0,86,0.55,,,-99.99,,2013-02-19 13:32:00,
2013-02-19 08:42:00,40.0,36.0,-100.00,SSW,210,7.0,17.0,87,0.55,,,-99.99,,2013-02-19 13:42:00,
2013-02-19 08:52:00,40.0,36.0,-100.00,SW,215,9.0,21.0,88,2.24,,,-99.99,,2013-02-19 13:52:00,
2013-02-19 09:02:00,40.0,36.0,-100.00,SW,215,12.0,21.0,87,1.10,,,-99.99,,2013-02-19 14:02:00,
2013-02-19 09:11:00,40.0,37.0,-100.00,SW,225,9.0,19.0,88,0.00,,,-99.99,,2013-02-19 14:11:00,
2013-02-19 09:22:00,40.0,37.0,-100.00,SW,235,8.0,19.0,88,0.00,,,-99.99,,2013-02-19 14:22:00,
2013-02-19 09:33:00,40.0,37.0,-100.00,SW,220,7.0,16.0,87,0.00,,,-99.99,,2013-02-19 14:33:00,
2013-02-19 09:42:00,40.0,37.0,-100.00,WSW,240,12.0,22.0,87,0.55,,,-99.99,,2013-02-19 14:42:00,
2013-02-19 09:52:00,40.0,37.0,-100.00,WSW,240,12.0,22.0,87,0.55,,,-99.99,,2013-02-19 14:52:00,
2013-02-19 10:02:00,39.0,36.0,-100.00,West,260,9.0,25.0,88,1.10,,,-99.99,,2013-02-19 15:02:00,
2013-02-19 10:11:00,38.0,35.0,-100.00,West,275,12.0,22.0,88,0.55,,,-99.99,,2013-02-19 15:11:00,
2013-02-19 10:21:00,37.0,34.0,-100.00,West,275,14.0,24.0,88,0.55,,,-99.99,,2013-02-19 15:21:00,
2013-02-19 10:32:00,36.0,32.0,-100.00,West,260,13.0,25.0,87,2.83,,,-99.99,,2013-02-19 15:32:00,
2013-02-19 10:42:00,34.0,31.0,-100.00,WSW,245,17.0,22.0,88,1.69,,,-99.99,,2013-02-19 15:42:00,
2013-02-19 10:52:00,34.0,31.0,-100.00,WSW,240,20.0,30.0,87,0.00,,,-99.99,,2013-02-19 15:52:00,
2013-02-19 11:02:00,33.0,30.0,-100.00,WSW,255,15.0,24.0,88,0.00,,,-99.99,,2013-02-19 16:02:00,
2013-02-19 11:11:00,34.0,31.0,-100.00,West,270,11.0,22.0,88,0.00,,,-99.99,,2013-02-19 16:11:00,
2013-02-19 11:22:00,34.0,30.0,-100.00,West,265,12.0,19.0,87,0.00,,,-99.99,,2013-02-19 16:22:00,
2013-02-19 11:32:00,34.0,30.0,-100.00,WSW,250,12.0,20.0,87,0.00,,,-99.99,,2013-02-19 16:32:00,
2013-02-19 11:42:00,34.0,29.0,-100.00,West,265,12.0,27.0,83,0.00,,,-99.99,,2013-02-19 16:42:00,
2013-02-19 11:51:00,33.0,27.0,-100.00,West,260,20.0,30.0,77,0.00,,,-99.99,,2013-02-19 16:51:00,
2013-02-19 12:01:00,33.0,27.0,-100.00,WSW,250,12.0,27.0,79,0.00,,,-99.99,,2013-02-19 17:01:00,
2013-02-19 12:11:00,33.0,28.0,-100.00,West,260,9.0,24.0,80,0.00,,,-99.99,,2013-02-19 17:11:00,
2013-02-19 12:21:00,33.0,27.0,-100.00,West,270,17.0,22.0,78,0.00,,,-99.99,,2013-02-19 17:21:00,
2013-02-19 12:32:00,33.0,27.0,-100.00,West,265,11.0,21.0,79,0.00,,,-99.99,,2013-02-19 17:32:00,
2013-02-19 12:42:00,33.0,27.0,-100.00,WSW,240,14.0,23.0,79,0.00,,,-99.99,,2013-02-19 17:42:00,
2013-02-19 12:52:00,32.0,26.0,-100.00,WSW,255,17.0,25.0,76,0.00,,,-99.99,,2013-02-19 17:52:00,
2013-02-19 13:02:00,33.0,26.0,-100.00,West,260,11.0,24.0,76,0.00,,,-99.99,,2013-02-19 18:02:00,
2013-02-19 13:11:00,32.0,24.0,-100.00,WSW,250,18.0,25.0,71,0.00,,,-99.99,,2013-02-19 18:11:00,
2013-02-19 13:21:00,31.0,25.0,-100.00,WNW,285,14.0,25.0,75,0.00,,,-99.99,,2013-02-19 18:21:00,
2013-02-19 13:32:00,31.0,23.0,-100.00,West,270,19.0,32.0,72,0.00,,,-99.99,,2013-02-19 18:32:00,
2013-02-19 13:42:00,31.0,23.0,-100.00,WSW,255,12.0,29.0,71,0.00,,,-99.99,,2013-02-19 18:42:00,
2013-02-19 13:51:00,31.0,23.0,-100.00,WSW,255,11.0,22.0,71,0.00,,,-99.99,,2013-02-19 18:51:00,
2013-02-19 14:01:00,32.0,23.0,-100.00,West,260,19.0,25.0,69,0.00,,,-99.99,,2013-02-19 19:01:00,
2013-02-19 14:11:00,32.0,23.0,-100.00,West,260,19.0,25.0,69,0.00,,,-99.99,,2013-02-19 19:11:00,
2013-02-19 14:21:00,30.0,22.0,-100.00,WNW,285,21.0,29.0,71,0.00,,,-99.99,,2013-02-19 19:21:00,
2013-02-19 14:32:00,29.0,22.0,-100.00,West,270,14.0,22.0,74,0.55,,,-99.99,,2013-02-19 19:32:00,
2013-02-19 14:42:00,29.0,23.0,-100.00,West,270,11.0,24.0,77,0.55,,,-99.99,,2013-02-19 19:42:00,
2013-02-19 14:52:00,29.0,23.0,-100.00,WSW,250,11.0,22.0,77,0.00,,,-99.99,,2013-02-19 19:52:00,
2013-02-19 15:02:00,29.0,23.0,-100.00,WNW,285,11.0,24.0,76,0.00,,,-99.99,,2013-02-19 20:02:00,
2013-02-19 15:12:00,29.0,23.0,-100.00,WNW,285,11.0,24.0,76,0.00,,,-99.99,,2013-02-19 20:12:00,
2013-02-19 15:21:00,29.0,22.0,-100.00,West,270,16.0,22.0,73,0.55,,,-99.99,,2013-02-19 20:21:00,
2013-02-19 15:32:00,29.0,22.0,-100.00,West,270,14.0,22.0,73,0.55,,,-99.99,,2013-02-19 20:32:00,
2013-02-19 15:42:00,29.0,22.0,-100.00,West,265,12.0,25.0,75,0.55,,,-99.99,,2013-02-19 20:42:00,
2013-02-19 15:52:00,28.0,22.0,-100.00,WSW,250,17.0,25.0,76,0.55,,,-99.99,,2013-02-19 20:52:00,
2013-02-19 16:02:00,28.0,22.0,-100.00,WSW,255,15.0,24.0,76,0.55,,,-99.99,,2013-02-19 21:02:00,
2013-02-19 16:11:00,28.0,21.0,-100.00,WSW,250,12.0,25.0,74,0.00,,,-99.99,,2013-02-19 21:11:00,
2013-02-19 16:21:00,28.0,20.0,-100.00,WSW,245,15.0,31.0,71,0.00,,,-99.99,,2013-02-19 21:21:00,
2013-02-19 16:32:00,28.0,20.0,-100.00,WSW,245,11.0,22.0,71,0.00,,,-99.99,,2013-02-19 21:32:00,
2013-02-19 16:42:00,28.0,20.0,-100.00,WSW,255,13.0,25.0,72,0.00,,,-99.99,,2013-02-19 21:42:00,
2013-02-19 16:51:00,28.0,20.0,-100.00,WSW,250,17.0,29.0,73,1.10,,,-99.99,,2013-02-19 21:51:00,
2013-02-19 17:02:00,28.0,20.0,-100.00,West,265,19.0,25.0,72,0.00,,,-99.99,,2013-02-19 22:02:00,
2013-02-19 17:11:00,28.0,19.0,-100.00,WSW,250,15.0,30.0,68,0.00,,,-99.99,,2013-02-19 22:11:00,
2013-02-19 17:21:00,28.0,17.0,-100.00,West,260,22.0,32.0,63,0.00,,,-99.99,,2013-02-19 22:21:00,
2013-02-19 17:32:00,28.0,16.0,-100.00,West,280,14.0,32.0,60,0.00,,,-99.99,,2013-02-19 22:32:00,
2013-02-19 17:42:00,27.0,15.0,-100.00,West,270,15.0,25.0,58,0.00,,,-99.99,,2013-02-19 22:42:00,
2013-02-19 17:52:00,27.0,15.0,-100.00,West,270,12.0,30.0,58,0.00,,,-99.99,,2013-02-19 22:52:00,
2013-02-19 18:01:00,27.0,15.0,-100.00,WSW,250,11.0,25.0,60,0.00,,,-99.99,,2013-02-19 23:01:00,
2013-02-19 18:11:00,27.0,15.0,-100.00,West,275,14.0,25.0,60,0.00,,,-99.99,,2013-02-19 23:11:00,
2013-02-19 18:21:00,27.0,15.0,-100.00,WNW,285,11.0,22.0,61,0.00,,,-99.99,,2013-02-19 23:21:00,
2013-02-19 18:32:00,27.0,16.0,-100.00,West,265,11.0,20.0,62,0.00,,,-99.99,,2013-02-19 23:32:00,
2013-02-19 18:42:00,26.0,16.0,-100.00,West,270,12.0,25.0,64,0.00,,,-99.99,,2013-02-19 23:42:00,
2013-02-19 18:52:00,26.0,17.0,-100.00,WSW,240,12.0,24.0,67,0.00,,,-99.99,,2013-02-19 23:52:00,
2013-02-19 19:01:00,26.0,18.0,-100.00,WSW,245,14.0,21.0,71,0.00,,,-99.99,,2013-02-20 00:01:00,
2013-02-19 19:11:00,26.0,19.0,-100.00,West,265,13.0,32.0,74,0.00,,,-99.99,,2013-02-20 00:11:00,
2013-02-19 19:21:00,25.0,20.0,-100.00,West,280,14.0,20.0,79,1.10,,,-99.99,,2013-02-20 00:21:00,
2013-02-19 19:32:00,25.0,21.0,-100.00,WNW,290,9.0,18.0,85,2.24,,,-99.99,,2013-02-20 00:32:00,
2013-02-19 19:42:00,24.0,21.0,-100.00,West,275,9.0,16.0,88,2.83,,,-99.99,,2013-02-20 00:42:00,
2013-02-19 19:52:00,23.0,21.0,-100.00,WSW,245,17.0,25.0,88,2.24,,,-99.99,,2013-02-20 00:52:00,
2013-02-19 20:02:00,23.0,20.0,-100.00,WSW,255,12.0,24.0,85,0.00,,,-99.99,,2013-02-20 01:02:00,
2013-02-19 20:11:00,23.0,17.0,-100.00,West,270,17.0,27.0,76,0.55,,,-99.99,,2013-02-20 01:11:00,
2013-02-19 20:21:00,23.0,14.0,-100.00,West,280,18.0,29.0,67,0.00,,,-99.99,,2013-02-20 01:21:00,
2013-02-19 20:32:00,23.0,14.0,-100.00,West,275,19.0,27.0,67,0.00,,,-99.99,,2013-02-20 01:32:00,
2013-02-19 20:42:00,23.0,14.0,-100.00,West,270,12.0,24.0,68,0.00,,,-99.99,,2013-02-20 01:42:00,
2013-02-19 20:52:00,23.0,14.0,-100.00,WNW,285,14.0,21.0,70,0.00,,,-99.99,,2013-02-20 01:52:00,
2013-02-19 21:02:00,23.0,15.0,-100.00,West,265,9.0,19.0,71,0.00,,,-99.99,,2013-02-20 02:02:00,
2013-02-19 21:11:00,23.0,15.0,-100.00,West,275,7.0,16.0,71,0.00,,,-99.99,,2013-02-20 02:11:00,
2013-02-19 21:21:00,23.0,15.0,-100.00,West,280,19.0,27.0,70,0.00,,,-99.99,,2013-02-20 02:21:00,
2013-02-19 21:32:00,23.0,15.0,-100.00,West,280,15.0,23.0,72,0.55,,,-99.99,,2013-02-20 02:32:00,
2013-02-19 21:42:00,23.0,15.0,-100.00,West,275,12.0,25.0,73,0.00,,,-99.99,,2013-02-20 02:42:00,
2013-02-19 21:52:00,23.0,16.0,-100.00,WSW,250,9.0,16.0,75,0.55,,,-99.99,,2013-02-20 02:52:00,
2013-02-19 22:02:00,22.0,17.0,-100.00,West,270,12.0,21.0,77,0.55,,,-99.99,,2013-02-20 03:02:00,
2013-02-19 22:12:00,22.0,16.0,-100.00,WSW,250,11.0,22.0,75,0.55,,,-99.99,,2013-02-20 03:12:00,
2013-02-19 22:22:00,22.0,18.0,-100.00,West,260,17.0,30.0,84,5.67,,,-99.99,,2013-02-20 03:22:00,
2013-02-19 22:32:00,21.0,17.0,-100.00,WNW,290,12.0,26.0,85,1.10,,,-99.99,,2013-02-20 03:32:00,
2013-02-19 22:42:00,21.0,15.0,-100.00,West,280,13.0,28.0,76,0.55,,,-99.99,,2013-02-20 03:42:00,
2013-02-19 22:52:00,20.0,14.0,-100.00,WNW,285,17.0,24.0,74,0.55,,,-99.99,,2013-02-20 03:52:00,
2013-02-19 23:01:00,20.0,14.0,-100.00,West,265,10.0,24.0,76,1.10,,,-99.99,,2013-02-20 04:01:00,
2013-02-19 23:11:00,20.0,13.0,-100.00,West,270,16.0,25.0,75,0.00,,,-99.99,,2013-02-20 04:11:00,
2013-02-19 23:21:00,20.0,14.0,-100.00,WNW,295,14.0,24.0,76,1.10,,,-99.99,,2013-02-20 04:21:00,
2013-02-19 23:32:00,19.0,12.0,-100.00,West,275,15.0,26.0,72,0.00,,,-99.99,,2013-02-20 04:32:00,
2013-02-19 23:42:00,19.0,12.0,-100.00,WNW,285,12.0,22.0,72,0.00,,,-99.99,,2013-02-20 04:42:00,
2013-02-19 23:52:00,19.0,12.0,-100.00,West,275,9.0,21.0,72,0.00,,,-99.99,,2013-02-20 04:52:00,